Location: Celina Elementary School
(33.3262°N, 96.7767°W)
Time: 07:54:59
(UTC+00:00)

Cosmos 1862 - Pass Details

Date: 26 November 2021
Orbit: 537 x 553 km, 82.5° (Epoch: 19 January)

Event Time Altitude Azimuth Distance (km) Brightness Sun altitude
Rises 12:12:15 0° 171° (S) 2,684 7.2 -11.8°
Reaches altitude 10° 12:14:28 10° 164° (SSE) 1,794 6.4 -11.4°
Maximum altitude 12:18:12 42° 93° (E) 776 4.7 -10.6°
Drops below altitude 10° 12:21:56 10° 22° (NNE) 1,801 6.0 -9.9°
Sets 12:24:10 0° 15° (NNE) 2,695 6.8 -9.5°
